www.pogodaiklimat.ru

Погода и климат >> Архив погоды >> Россия >> Волгоградская область >> Волгоград город


ПОГОДА в Волгограде город

  • Прогноз погоды в Волгограде город
  • Монитор погоды в Волгограде город
  • Климат города

АРХИВ ПОГОДЫ в Волгограде город

Время (UTC), дата Ветер
(напр.,м/с)
 
Видим.   Явления Облачность Т
(С)
Тd
(С)
f
(%)
Тe
(С)
Тes
(С)
Комфортность P
(гПа)
Po
(гПа)
Тmin
(С)
Tmax
(С)
R
(мм)
R24
(мм)
S
(см)
18 18.05 В 1 10 км 8/0
[Ac trans Ci fib]
+24.6 +3.8 26 +24 +24 комфорт 1012.0 998.8
21 18.05 штиль 0 10 км 10/0
[Ac und]
+23.2 +6.0 33 +24 +24 комфорт 1012.0 998.7
00 19.05 СЗ 3 10 км 10/0
[Ac und]
+20.2 +11.2 56 +22 +22 комфорт 1013.5 1000.0
03 19.05 ЮЗ 3 10 км {ливн. осадки} 10/10 1000 м
[Cb cap]
+19.0 +11.4 61 +20 +20 1013.3 999.8 +17.7
06 19.05 З 2 10 км {ливн. осадки} ясно +24.0 +9.1 39 +25 +36 комфорт 1013.0 999.8
09 19.05 Ю 2 10 км 3/3 1500 м
[Cu med, cong Ci fib]
+26.9 +6.8 28 +26 +39 жарко 1013.0 999.9
12 19.05 ЮЗ 3 10 км 6/4 1500 м
[Cu med, cong Ci fib]
+27.9 +5.3 24 +27 +32 жарко 1012.0 998.9
15 19.05 ЮЗ 2 10 км 8/3 1500 м
[Cu med, cong Ci]
+26.6 +6.3 27 +26 +27 жарко 1012.0 998.8 +28.5
18 19.05 ЮЗ 1 10 км 3/1 1500 м
[Cu med, cong Ci fib]
+23.1 +7.9 38 +24 +24 комфорт 1013.1 999.8
21 19.05 СВ 1 10 км 3/0
[Ci fib]
+20.6 +10.4 52 +23 +23 комфорт 1013.3 999.9
00 20.05 СЗ 2 10 км 3/0
[Ac As]
+18.1 +10.3 60 +19 +19 1013.6 1000.0
03 20.05 штиль 0 10 км 10/0
[Ac und]
+19.4 +9.1 51 +20 +21 1014.1 1000.6 +16.5
06 20.05 Ю 1 10 км 8/0
[Ac lent Ci fib]
+24.5 +8.5 36 +25 +31 комфорт 1015.0 1001.7
09 20.05 ЮЗ 2 10 км 6/6 1000 м
[Cu hum]
+28.2 +5.6 24 +27 +34 жарко 1014.2 1001.1
12 20.05 ЮВ 1 10 км 6/4 1000 м
[Cu hum Ci fib]
+28.1 +7.8 28 +28 +35 жарко 1013.3 1000.2
15 20.05 Ю 2 10 км {ливн. осадки} 8/8 600 м
[Cb cap]
+26.9 +7.6 29 +27 +27 жарко 1012.5 999.3 +29.4
18 20.05 штиль 0 10 км {ливн. осадки} 8/8 1000 м
[Sc diur, vesp]
+23.5 +8.7 39 +24 +24 комфорт 1014.2 1000.9
21 20.05 штиль 0 10 км ясно +20.9 +10.7 52 +22 +22 комфорт 1014.0 1000.6
00 21.05 штиль 0 10 км 3/0
[Ci]
+19.2 +10.6 57 +20 +20 1014.0 1000.5
03 21.05 В 1 10 км 6/0
[Ac lent]
+19.6 +11.7 60 +22 +23 комфорт 1014.4 1000.9 +18.7
06 21.05 С 2 10 км 10/0
[Ac und]
+24.6 +9.3 38 +25 +29 комфорт 1014.9 1001.6
09 21.05 В 2 10 км 10/0
[Ac cast Cc]
+26.1 +7.2 30 +26 +35 жарко 1014.5 1001.3
12 21.05 З 1 10 км 8/0
[Ac cast Ci fib]
+29.5 +5.5 22 +28 +37 жарко 1014.3 1001.2
15 21.05 СЗ 5-10
{10}
10 км 10/6 1000 м
[Sc Ac cast]
+24.9 +13.5 49 +27 +27 жарко 1014.6 1001.3 +29.8
18 21.05 С 3
{10}
10 км 8/3 1000 м
[Sc Ac cast]
+22.4 +13.7 58 +26 +26 жарко 1016.0 1002.6
21 21.05 СЗ 3 10 км 10/10 1000 м
[Sc]
+21.9 +14.3 62 +25 +25 комфорт 1016.0 1002.6
00 22.05 С 3 10 км 10/10 1000 м
[Sc]
+20.0 +10.8 55 +22 +22 комфорт 1016.9 1003.4
03 22.05 СВ 4 10 км 10/8 600 м
[Cb cap Ac cast]
+20.1 +12.3 61 +22 +22 комфорт 1018.4 1004.9 +18.9
06 22.05 СВ 3 10 км 8/5 1000 м
[Sc Ac As Ci fib]
+22.7 +13.2 55 +26 +29 жарко 1018.8 1005.4
09 22.05 В 2
{10}
10 км 10/6 1000 м
[Sc Ac und]
+25.3 +7.9 33 +25 +28 комфорт 1019.9 1006.6
12 22.05 Ю 1 10 км {ливн. осадки} 8/3 1500 м
[Sc Ac As Ci fib]
+31.2 +8.0 24 +30 +36 жарко 1019.2 1006.1
15 22.05 СЗ 1 10 км 9/5 1500 м
[Sc Ac As Ci fib]
+28.4 +10.9 34 +29 +30 жарко 1019.6 1006.4 +31.4
18 22.05 С 1 10 км 8/0
[Ac As]
+25.0 +10.4 40 +26 +26 жарко 1020.1 1006.8
21 22.05 В 2 10 км 9/0
[Ac As]
+24.3 +4.6 28 +24 +24 комфорт 1021.0 1007.6
00 23.05 В 1 10 км 8/0
[Ac As]
+21.7 +3.6 30 +22 +22 комфорт 1021.5 1008.0
03 23.05 В 2 10 км 6/3 1500 м
[Sc Ac As Ci fib]
+20.1 +2.5 31 +21 +22 комфорт 1021.8 1008.2 +20.1
06 23.05 В 2 10 км 8/0
[Ac lent Ci fib]
+23.3 +6.3 33 +24 +30 комфорт 1021.9 1008.4 +20.1
09 23.05 В 3 10 км 10/0
[Ci fib]
+28.3 +7.3 27 +28 +39 жарко 1020.9 1007.7
12 23.05 В 3 10 км 10/0
[Ac trans Ci fib]
+33.5 +4.5 16 +31 +37 жарко 1018.4 1005.4
15 23.05 В 2 10 км 10/0
[Ac trans Ci fib]
+31.4 +3.9 18 +29 +30 жарко 1016.5 1003.5 +34.0
18 23.05 Ю 1 10 км 10/0
[Ac trans Ci fib]
+27.3 +3.9 22 +26 +26 жарко 1016.4 1003.2
21 23.05 Ю 2 10 км ясно +25.2 +6.6 30 +25 +25 комфорт 1016.6 1003.3
00 24.05 ЮВ 1 10 км ясно +21.0 +10.7 52 +24 +24 комфорт 1016.0 1002.6
03 24.05 ЮВ 1 10 км 10/0
[Ci fib]
+21.4 +9.7 47 +23 +24 комфорт 1014.7 1001.3 +19.7
06 24.05 ЮВ 2 10 км 3/0
[Ci fib]
+25.1 +10.6 40 +26 +37 жарко 1013.9 1000.7
09 24.05 ЮВ 2 10 км ясно +32.7 +4.8 17 +30 +48 жарко 1011.3 998.4
12 24.05 Ю 4-11
{13}
10 км 1/0
[Ci]
+35.8 -6.4 6 +31 +39 жарко 1008.4 995.6
15 24.05 ЮЗ 2
{12}
10 км 4/0
[Ci]
+32.0 +5.5 19 +30 +32 жарко 1007.6 994.7 +35.8
18 24.05 СЗ 2 10 км ясно +26.8 +10.0 35 +27 +27 жарко 1008.4 995.2
21 24.05 СЗ 2 10 км ясно +23.6 +12.5 50 +26 +26 жарко 1008.7 995.5
00 25.05 С 1 10 км ясно +21.3 +13.0 59 +24 +24 комфорт 1008.2 994.8
03 25.05 СЗ 3 10 км 1/0
[Ci]
+22.1 +13.5 58 +25 +26 комфорт 1008.1 994.8 +19.9
06 25.05 В 1 10 км 4/0
[Ac cast Ci]
+28.7 +13.4 39 +30 +40 жарко 1007.7 994.7
09 25.05 СЗ 3 10 км слабый дождь 10/10 1000 м
[Sc]
+27.2 +14.1 45 +29 +29 жарко 1007.4 994.3
12 25.05 СЗ 1 10 км {дождь} 8/6 1000 м
[Sc Ac cast]
+28.5 +13.2 39 +30 +34 жарко 1007.3 994.3

 

Местоположение метеостанции Волгоград город (Волгоградская область, Россия): широта 48.67 долгота 44.45 высота над уровнем моря 116 м.

В архиве по умолчанию представлена погода в Волгограде город за последнюю неделю. Архивные данные за месяц целиком и за предыдущие месяцы, начиная с января 2011 года, Вы можете получить, выбрав интересующий диапазон дат из раскрывающегося списка и нажав кнопку "Ввод!".


*Определитесь, кто Вы:
робот инопланетянин человек

Внимание! Время в таблицах - всемирное. Для получения местного времени необходимо прибавить поправку, которая в Волгограде город равна 3 ч.

Смотрите также архив погоды в соседних городах и на ближайших метеорологических станциях:

Погода в Волгограде (Волгоградская область, Россия) (14 км)
Погода в Калаче-на-Дону (Волгоградская область, Россия) (71 км)
Погода в Иловле (Волгоградская область, Россия) (77 км)
Погода в Малых Дербетах (Калмыкия, Россия) (84 км)
Погода в Нижнем Чире (Волгоградская область, Россия) (105 км)
Погода в Ольховке (Волгоградская область, Россия) (134 км)
Погода в Фролове (Волгоградская область, Россия) (138 км)
Погода в Черный Яр (Астраханская область, Россия) (140 км)
Погода в Кетченерах (Калмыкия, Россия) (150 км)
Погода в Котельниково (Волгоградская область, Россия) (151 км)

Пояснения к столбцам:

Ветер - указаны скорость ветра в м/с - средняя за 10 мин, порывы в срок и между сроками (в фигурных скобках) и направление, откуда дует ветер: С - северный, СВ - северо-восточный, В - восточный, ЮВ - юго-восточный, Ю - южный, ЮЗ - юго-западный, З - западный, СЗ - северо-западный.
Видимость - горизонтальная дальность видимости в метрах или километрах. При видимости от 1 до 10 км при отсутствии осадков обычно наблюдается дымка, при ухудшении видимости до 1 км и менее - туман. В сухую погоду видимость может ухудшаться дымом, пылью или мглою.
Явления - указаны атмосферные явления, наблюдавшиеся в срок или в последний час перед сроком; фигурными скобками обозначены явления, наблюдавшиеся между сроками (за 1-3 часа до срока); квадратными скобками обозначены град или гололедные отложения с указанием их диаметра в мм.
Облачность - указаны через наклонную черту общая и нижняя облачность в баллах и высота нижней границы облаков в метрах; квадратными скобками обозначены формы облаков: Ci - перистые, Cs - перисто-слоистые, Cc - перисто-кучевые, Ac - высококучевые, As - высокослоистые, Sc - слоисто-кучевые, Ns - слоисто-дождевые, Cu - кучевые, Cb - кучево-дождевые. Подробнее классификацию облаков см. в Атласе облаков (PDF).
T - Температура воздуха - температура, измеренная на высоте 2 м над землей.
Td - Температура точки росы - температура, при понижении до которой содержащийся в воздухе водяной пар достигнет насыщения.
f - Относительная влажность воздуха - влажноcть воздуха, измеренная на высоте 2 м над землей.
Te - Эффективная температура - температура, которую ощущает одетый по сезону человек в тени. Характеристика душности погоды. При расчете учитывается влияние влажности воздуха и скорости ветра на теплоощущения человека.
Tes - Эффективная температура на солнце - температура, которую ощущает человек, с поправкой на солнечный нагрев. Характеристика знойности погоды. Зависит от высоты солнца над горизонтом, облачности и скорости ветра. Ночью, в пасмурную погоду, а также при ветре 12 м/с и более поправка равна нулю.
P - Атмосферное давление - приведенное к уровню моря атмосферное давление.
Po - Атмосферное давление - измеренное на уровне метеостанции атмосферное давление.
Tmin - Минимальная температура - минимум температуры воздуха на высоте 2 м над землей.
Tmax - Максимальная температура - максимум температуры воздуха на высоте 2 м над землей.
R - Количество осадков - Количество выпавших осадков за период времени, мм. При наведении курсора мыши на число - период времени, за который выпало указанное количество осадков.
R24 - Количество осадков - Количество выпавших осадков за 24 часа, мм.
S - Снежный покров - Высота снежного покрова, см. При наведении курсора мыши на число - состояние снежного покрова и степень покрытия местности в баллах.